K3FEF-13 Weather Reports


time (UTC)temp
C
wind
direction
speed
KPH
gust
KPH
rain 1hr
cm
rain 24hr
cm
rain mn
cm
humidity
%
barometer
mb
20260510082516 10 0.0 0.0 0.00 0.79 0.00 97 1013.3
20260510081516 10 0.0 0.0 0.00 0.79 0.00 97 1013.3
20260510080556 10 0.0 0.0 0.00 0.79 0.00 97 1013.2
20260510075516 10 0.0 0.0 0.00 0.79 0.00 97 1013.2
20260510074516 10 0.0 0.0 0.00 0.79 0.00 97 1014.0
20260510073536 10 0.0 0.0 0.00 0.79 0.00 97 1013.8
20260510072516 10 0.0 0.0 0.00 0.79 0.00 97 1014.0
20260510071516 10 0.0 0.0 0.00 0.79 0.00 97 1014.0
20260510070516 10 0.0 0.0 0.00 0.79 0.00 97 1014.1
20260510065536 10 0.0 0.0 0.00 0.79 0.00 97 1014.1
20260510064536 10 0.0 0.0 0.00 0.79 0.00 97 1014.3
20260510063516 10 0.0 0.0 0.00 0.79 0.00 97 1014.5
20260510062516 10 0.0 0.0 0.00 0.81 0.00 97 1014.6
20260510061516 10 0.0 0.0 0.00 0.84 0.00 97 1013.7
20260510060516 10 0.0 0.0 0.00 0.84 0.00 97 1013.7
20260510055516 10 0.0 0.0 0.00 0.86 0.00 97 1014.1
20260510054515 10 0.0 0.0 0.00 0.91 0.00 97 1014.2
20260510053516 10 0.0 0.0 0.00 0.91 0.00 97 1014.0
20260510052516 10 0.0 0.0 0.00 0.91 0.00 97 1014.1
20260510051516 10 0.0 0.0 0.00 0.91 0.00 97 1014.1
20260510050536 10 0.0 0.0 0.00 0.91 0.00 97 1013.7
20260510045516 9 0.0 0.0 0.00 0.91 0.00 97 1013.3
20260510044536 9 0.0 0.0 0.00 0.91 0.00 97 1013.3
20260510043515 9 0.0 0.0 0.00 0.91 0.00 97 1013.2
20260510042515 9 0.0 0.0 0.00 0.91 0.00 97 1013.3
20260510041516 9 0.0 0.0 0.00 0.91 0.00 97 1013.4
20260510040515 9 0.0 0.0 0.00 0.91 0.00 97 1013.5
20260510035516 9 0.0 0.0 0.00 0.91 0.91 97 1013.3
20260510034516 9 0.0 0.0 0.00 0.91 0.91 97 1013.0
20260510033516 8 0.0 0.0 0.00 0.91 0.91 97 1013.0
20260510032516 8 0.0 0.0 0.00 0.91 0.91 96 1012.9
20260510031516 8 0.0 0.0 0.00 0.91 0.91 96 1012.7
20260510030516 8 0.0 0.0 0.00 0.91 0.91 96 1012.7
20260510025516 9 0.0 0.0 0.00 0.91 0.91 96 1012.9
20260510024517 9 0.0 0.0 0.00 0.91 0.91 96 1012.8
20260510023516 9 0.0 0.0 0.00 0.91 0.91 96 1013.0
20260510022517 9 0.0 0.0 0.00 0.91 0.91 96 1012.9
20260510021516 10 0.0 0.0 0.00 0.91 0.91 96 1012.9
20260510020516 10 0.0 0.0 0.00 0.91 0.91 96 1012.9
20260510015516 10 0.0 0.0 0.00 0.91 0.91 96 1012.9
20260510014516 10 0.0 0.0 0.00 0.91 0.91 96 1012.7
20260510013536 10 0.0 0.0 0.00 0.91 0.91 96 1012.8
20260510012516 10 0.0 0.0 0.00 0.91 0.91 96 1012.8
20260510011516 10 0.0 0.0 0.00 0.91 0.91 95 1012.5
20260510010516 10 0.0 0.0 0.00 0.91 0.91 95 1012.7
20260510005516 10 0.0 0.0 0.00 0.91 0.91 95 1012.7
20260510004536 10 0.0 0.0 0.00 0.91 0.91 95 1012.4
20260510003516 10 0.0 0.0 0.00 0.91 0.91 95 1012.5
20260510002516 11 0.0 0.0 0.00 0.91 0.91 94 1012.2
20260510001516 11 0.0 0.0 0.00 0.91 0.91 94 1012.1
20260510000516 11 0.0 0.0 0.00 0.91 0.91 94 1012.0
20260509235516 11 0.0 0.0 0.00 0.91 0.91 94 1011.9
20260509234516 11 0.0 0.0 0.00 0.91 0.91 94 1012.0
20260509233556 11 0.0 0.0 0.00 0.91 0.91 94 1011.8
20260509232516 11 0.0 0.0 0.00 0.91 0.91 93 1011.5
20260509231516 11 0.0 0.0 0.00 0.91 0.91 92 1011.4
20260509230517 12 0.0 0.0 0.00 0.91 0.91 91 1011.6
20260509225536 12 0.0 0.0 0.00 0.91 0.91 91 1011.6
20260509224516 12 0.0 0.0 0.00 0.91 0.91 92 1011.6
20260509223556 12 0.0 0.0 0.00 0.91 0.91 92 1011.6
20260509222536 11 0.0 0.0 0.00 0.91 0.91 92 1011.9
20260509221516 12 0.0 0.0 0.00 0.91 0.91 92 1011.9
20260509220516 12 0.0 0.0 0.00 0.91 0.91 92 1011.9
20260509215516 12 0.0 0.0 0.00 0.91 0.91 93 1012.0
20260509214536 11 0.0 0.0 0.00 0.91 0.91 93 1012.2
20260509213516 11 0.0 0.0 0.00 0.91 0.91 94 1012.1
20260509212516 11 0.0 0.0 0.00 0.91 0.91 95 1011.9
20260509211516 11 0.0 0.0 0.03 0.91 0.91 94 1012.0
20260509210516 10 0.0 0.0 0.05 0.91 0.91 94 1012.0
20260509205516 11 0.0 0.0 0.05 0.91 0.91 94 1012.0
20260509204515 11 0.0 0.0 0.05 0.91 0.91 94 1012.3
20260509203515 11 0.0 0.0 0.05 0.91 0.91 93 1012.3
20260509202515 11 0.0 0.0 0.08 0.91 0.91 93 1012.5
20260509201515 11 0.0 0.0 0.10 0.89 0.89 93 1012.5
20260509200516 11 0.0 0.0 0.13 0.86 0.86 93 1012.6
20260509195515 11 0.0 0.0 0.15 0.86 0.86 94 1012.6
20260509194515 10 0.0 0.0 0.18 0.86 0.86 94 1012.9
20260509193515 10 0.0 0.0 0.23 0.86 0.86 94 1012.9
20260509192516 10 0.0 0.0 0.25 0.84 0.84 94 1013.1
20260509191515 10 0.0 0.0 0.25 0.79 0.79 93 1013.2
20260509190515 10 0.0 0.0 0.25 0.74 0.74 93 1013.3
20260509185515 10 0.0 0.0 0.30 0.71 0.71 93 1013.5
20260509184515 10 0.0 0.0 0.30 0.69 0.69 93 1013.5
20260509183515 11 0.0 0.0 0.28 0.64 0.64 94 1013.6
20260509182515 11 0.0 0.0 0.25 0.58 0.58 93 1013.9
20260509181515 11 0.0 0.0 0.20 0.53 0.53 93 1013.8
20260509180517 11 0.0 0.0 0.18 0.51 0.48 93 1014.0
20260509175517 11 0.0 0.0 0.10 0.46 0.41 93 1013.8
20260509174537 11 0.0 0.0 0.08 0.48 0.38 93 1013.8
20260509173517 11 0.0 0.0 0.05 0.46 0.36 93 1013.7
20260509172517 11 0.0 0.0 0.03 0.43 0.33 93 1013.7
20260509171517 11 0.0 0.0 0.03 0.43 0.33 93 1013.7
20260509170517 11 0.0 0.0 0.00 0.41 0.30 93 1013.6
20260509165517 11 0.0 0.0 0.03 0.41 0.30 93 1013.6
20260509164537 11 0.0 0.0 0.03 0.41 0.30 93 1013.6
20260509163517 10 0.0 0.0 0.03 0.41 0.30 94 1013.7
20260509162517 10 0.0 0.0 0.05 0.41 0.30 93 1013.8
20260509161537 10 0.0 0.0 0.05 0.41 0.30 94 1013.8
20260509160537 10 0.0 0.0 0.08 0.41 0.30 94 1013.5
20260509155517 10 0.0 0.0 0.05 0.38 0.28 94 1013.6
20260509154537 10 0.0 0.0 0.08 0.38 0.28 94 1014.0
20260509153517 10 0.0 0.0 0.08 0.38 0.28 94 1014.1
20260509152517 10 0.0 0.0 0.05 0.36 0.25 94 1014.3
20260509151517 10 0.0 0.0 0.05 0.36 0.25 93 1014.5
20260509150517 9 0.0 0.0 0.05 0.33 0.23 94 1014.3
20260509145517 9 0.0 0.0 0.05 0.33 0.23 94 1014.2
20260509144517 9 0.0 0.0 0.03 0.30 0.20 94 1014.2
20260509143517 9 0.0 0.0 0.03 0.30 0.20 93 1014.3
20260509142517 9 0.0 0.0 0.03 0.30 0.20 93 1014.3
20260509141537 9 0.0 0.0 0.03 0.30 0.20 94 1014.2
20260509140517 8 0.0 0.0 0.00 0.28 0.18 94 1013.9
20260509135517 8 0.0 0.0 0.00 0.28 0.18 94 1014.0
20260509134517 8 0.0 0.0 0.00 0.28 0.18 93 1014.0
20260509133517 8 0.0 0.0 0.00 0.28 0.18 94 1014.1
20260509132537 8 0.0 0.0 0.00 0.28 0.18 93 1014.1
20260509131517 8 0.0 0.0 0.00 0.28 0.18 93 1014.4
20260509130516 8 0.0 0.0 0.00 0.28 0.18 93 1014.4
20260509125516 8 0.0 0.0 0.03 0.28 0.18 93 1014.3
20260509124517 8 0.0 0.0 0.03 0.28 0.18 93 1014.3
20260509123517 8 0.0 0.0 0.03 0.28 0.18 93 1014.3
20260509122537 8 0.0 0.0 0.03 0.28 0.18 94 1014.5
20260509121537 8 0.0 0.0 0.03 0.28 0.18 95 1014.4
20260509120516 8 0.0 0.0 0.03 0.28 0.18 95 1013.9
20260509115517 8 0.0 0.0 0.00 0.25 0.15 95 1013.9
20260509114516 8 0.0 0.0 0.00 0.25 0.15 95 1014.1
20260509113516 7 0.0 0.0 0.00 0.25 0.15 95 1013.8
20260509112516 7 0.0 0.0 0.00 0.25 0.15 95 1013.9
20260509111516 7 0.0 0.0 0.00 0.25 0.15 95 1014.1
20260509110516 7 0.0 0.0 0.00 0.25 0.15 96 1014.5
20260509105516 7 0.0 0.0 0.00 0.25 0.15 96 1014.4
20260509104516 7 0.0 0.0 0.03 0.25 0.15 96 1014.4
20260509103516 7 0.0 0.0 0.03 0.25 0.15 96 1014.2
20260509102516 7 0.0 0.0 0.03 0.25 0.15 96 1014.4
20260509101536 7 0.0 0.0 0.03 0.25 0.15 95 1014.3
20260509100516 7 0.0 0.0 0.03 0.25 0.15 95 1014.2
20260509095516 7 0.0 0.0 0.03 0.25 0.15 95 1014.3
20260509094516 7 0.0 0.0 0.00 0.23 0.13 95 1014.4
20260509093516 7 0.0 0.0 0.00 0.23 0.13 95 1014.5
20260509092516 7 0.0 0.0 0.00 0.23 0.13 95 1014.5
20260509091516 7 0.0 0.0 0.00 0.23 0.13 95 1014.7
20260509090516 7 0.0 0.0 0.00 0.23 0.13 95 1014.6
20260509085516 7 0.0 0.0 0.00 0.23 0.13 95 1014.7
20260509084516 7 0.0 0.0 0.00 0.23 0.13 95 1014.6
20260509083516 7 0.0 0.0 0.00 0.23 0.13 95 1014.9